Time,TemperatureF,DewpointF,PressureIn,WindDirection,WindDirectionDegrees,WindSpeedMPH,WindSpeedGustMPH,Humidity,HourlyPrecipIn,Conditions,Clouds,dailyrainin,SoftwareType,DateUTC
2013-11-08 00:03:00,43.0,32.0,30.13,NW,319,0.0,8.0,66,0.00,,,0.00,,2013-11-08 05:03:00,
2013-11-08 00:23:00,42.0,31.0,30.13,NNE,31,1.0,9.0,65,0.00,,,0.00,,2013-11-08 05:23:00,
2013-11-08 00:44:00,42.0,31.0,30.14,NE,45,1.0,7.0,64,0.00,,,0.00,,2013-11-08 05:44:00,
2013-11-08 00:54:00,42.0,31.0,30.14,NE,45,1.0,7.0,64,0.00,,,0.00,,2013-11-08 05:54:00,
2013-11-08 01:23:00,41.0,30.0,30.14,East,99,0.0,2.0,65,0.00,,,0.00,,2013-11-08 06:23:00,
2013-11-08 01:52:00,41.0,30.0,30.15,North,0,1.0,7.0,65,0.00,,,0.00,,2013-11-08 06:52:00,
2013-11-08 02:12:00,40.0,30.0,30.15,NNE,15,1.0,10.0,66,0.00,,,0.00,,2013-11-08 07:12:00,
2013-11-08 02:22:00,40.0,30.0,30.15,NNE,15,1.0,10.0,66,0.00,,,0.00,,2013-11-08 07:22:00,
2013-11-08 02:52:00,41.0,31.0,30.15,NNE,13,0.0,12.0,66,0.00,,,0.00,,2013-11-08 07:52:00,
2013-11-08 03:12:00,40.0,30.0,30.16,ENE,75,1.0,6.0,66,0.00,,,0.00,,2013-11-08 08:12:00,
2013-11-08 03:22:00,40.0,30.0,30.16,ENE,75,1.0,6.0,66,0.00,,,0.00,,2013-11-08 08:22:00,
2013-11-08 03:52:00,40.0,29.0,30.16,East,80,0.0,3.0,65,0.00,,,0.00,,2013-11-08 08:52:00,
2013-11-08 04:12:00,40.0,30.0,30.16,North,6,1.0,7.0,66,0.00,,,0.00,,2013-11-08 09:12:00,
2013-11-08 04:22:00,40.0,30.0,30.16,North,6,1.0,7.0,66,0.00,,,0.00,,2013-11-08 09:22:00,
2013-11-08 04:43:00,40.0,30.0,30.16,NE,42,0.0,2.0,66,0.00,,,0.00,,2013-11-08 09:43:00,
2013-11-08 04:54:00,40.0,30.0,30.16,NE,42,0.0,2.0,66,0.00,,,0.00,,2013-11-08 09:54:00,
2013-11-08 05:03:00,40.0,30.0,30.16,NE,42,0.0,2.0,66,0.00,,,0.00,,2013-11-08 10:03:00,
2013-11-08 05:12:00,40.0,30.0,30.16,NE,42,0.0,2.0,66,0.00,,,0.00,,2013-11-08 10:12:00,
2013-11-08 05:53:00,39.0,29.0,30.17,North,11,0.0,2.0,67,0.00,,,0.00,,2013-11-08 10:53:00,
2013-11-08 06:02:00,39.0,29.0,30.17,North,11,0.0,2.0,67,0.00,,,0.00,,2013-11-08 11:02:00,
2013-11-08 06:22:00,39.0,29.0,30.17,NNE,31,0.0,3.0,67,0.00,,,0.00,,2013-11-08 11:22:00,
2013-11-08 06:33:00,39.0,29.0,30.17,NNE,31,0.0,3.0,67,0.00,,,0.00,,2013-11-08 11:33:00,
2013-11-08 06:52:00,39.0,29.0,30.17,NE,37,1.0,5.0,68,0.00,,,0.00,,2013-11-08 11:52:00,
2013-11-08 07:21:00,39.0,29.0,30.18,NNW,342,0.0,6.0,68,0.00,,,0.00,,2013-11-08 12:21:00,
2013-11-08 07:42:00,38.0,29.0,30.19,North,11,0.0,6.0,69,0.00,,,0.00,,2013-11-08 12:42:00,
2013-11-08 07:52:00,38.0,29.0,30.19,North,11,0.0,6.0,69,0.00,,,0.00,,2013-11-08 12:52:00,
2013-11-08 08:11:00,38.0,29.0,30.19,North,11,0.0,6.0,69,0.00,,,0.00,,2013-11-08 13:11:00,
2013-11-08 08:42:00,42.0,31.0,30.22,NNW,344,1.0,8.0,66,0.00,,,0.00,,2013-11-08 13:42:00,
2013-11-08 08:52:00,42.0,31.0,30.22,NNW,344,1.0,8.0,66,0.00,,,0.00,,2013-11-08 13:52:00,
2013-11-08 09:02:00,42.0,31.0,30.22,NNW,344,1.0,8.0,66,0.00,,,0.00,,2013-11-08 14:02:00,
2013-11-08 09:22:00,44.0,32.0,30.23,North,11,3.0,9.0,62,0.00,,,0.00,,2013-11-08 14:22:00,
2013-11-08 09:32:00,44.0,32.0,30.23,North,11,3.0,9.0,62,0.00,,,0.00,,2013-11-08 14:32:00,
2013-11-08 09:52:00,45.0,32.0,30.24,NNE,20,2.0,9.0,60,0.00,,,0.00,,2013-11-08 14:52:00,
2013-11-08 10:22:00,46.0,32.0,30.24,NNE,28,2.0,9.0,58,0.00,,,0.00,,2013-11-08 15:22:00,
2013-11-08 10:33:00,46.0,32.0,30.24,NNE,28,2.0,9.0,58,0.00,,,0.00,,2013-11-08 15:33:00,
2013-11-08 10:53:00,47.0,33.0,30.25,NNW,331,2.0,7.0,57,0.00,,,0.00,,2013-11-08 15:53:00,
2013-11-08 11:13:00,48.0,33.0,30.26,NNE,33,5.0,9.0,56,0.00,,,0.00,,2013-11-08 16:13:00,
2013-11-08 11:23:00,48.0,33.0,30.26,NNE,33,5.0,9.0,56,0.00,,,0.00,,2013-11-08 16:23:00,
2013-11-08 11:33:00,48.0,33.0,30.26,NNE,33,5.0,9.0,56,0.00,,,0.00,,2013-11-08 16:33:00,
2013-11-08 12:12:00,51.0,34.0,30.25,North,359,1.0,9.0,51,0.00,,,0.00,,2013-11-08 17:12:00,
2013-11-08 12:22:00,51.0,34.0,30.25,North,359,1.0,9.0,51,0.00,,,0.00,,2013-11-08 17:22:00,
2013-11-08 12:33:00,51.0,34.0,30.25,North,359,1.0,9.0,51,0.00,,,0.00,,2013-11-08 17:33:00,
2013-11-08 16:54:00,53.0,30.0,30.24,NE,41,0.0,5.0,41,0.00,,,0.00,,2013-11-08 21:54:00,
2013-11-08 17:04:00,53.0,30.0,30.24,NE,41,0.0,5.0,41,0.00,,,0.00,,2013-11-08 22:04:00,
2013-11-08 17:53:00,49.0,29.0,30.25,East,100,0.0,0.0,46,0.00,,,0.00,,2013-11-08 22:53:00,
2013-11-08 18:03:00,49.0,29.0,30.25,East,100,0.0,0.0,46,0.00,,,0.00,,2013-11-08 23:03:00,
2013-11-08 18:22:00,48.0,29.0,30.26,East,100,0.0,0.0,48,0.00,,,0.00,,2013-11-08 23:22:00,
2013-11-08 18:43:00,47.0,29.0,30.26,East,100,0.0,0.0,49,0.00,,,0.00,,2013-11-08 23:43:00,
2013-11-08 18:53:00,47.0,29.0,30.26,East,100,0.0,0.0,49,0.00,,,0.00,,2013-11-08 23:53:00,
2013-11-08 19:22:00,46.0,29.0,30.27,East,100,0.0,0.0,52,0.00,,,0.00,,2013-11-09 00:22:00,
2013-11-08 19:42:00,45.0,28.0,30.27,East,100,0.0,0.0,52,0.00,,,0.00,,2013-11-09 00:42:00,
2013-11-08 19:52:00,45.0,28.0,30.27,East,100,0.0,0.0,52,0.00,,,0.00,,2013-11-09 00:52:00,